Weather in Kindasovo

Russia / Republic of Karelia     61°43′32″N   33°27′15″E
temp.,
°C
wind,
m/s
gust,
m/s
humid.,
%
clouds,
%
prec.,
mm/h
press.,
hPa
HPBL,
m
7 march, sun
sun700:00−5s81691100 1.3 987992
03:00−2wsw51095100 2.9 985751
06:00−9w1295100 0.1 98421
09:00−10n249083 0.1 984145
12:00−7n3786100 0.0 985482
15:00−6ne5993100 1.1 987808
18:00−8ne61192100 1.3 9901040
21:00−9nne61392100 1.9 9941004
8 march, mon
mon800:00−11nne61391100 0.4 997802
03:00−13nne51391100 0.7 1002639
06:00−17nne41294100 0.1 1005483
09:00−19nne41094100 0.1 1008406
12:00−17nne4792100 0.0 1011415
15:00−14nne478898 0.0 1013523
18:00−17nne379373 0.0 1014276
21:00−22nne269760 0.0 1016127
9 march, tue
tue900:00−26nne239834 0.0 101841
03:00−28nne239839 0.0 101943
06:00−30ne23983 0.0 102157
09:00−28ne23961 0.0 1022123
12:00−20ne22840 0.0 1023299
15:00−15n11770 0.0 1023349
18:00−18nw11880 0.0 102320
21:00−21nnw11910 0.0 102420
10 march, wed
wed1000:00−23nnw11900 0.0 102520
03:00−24w11890 0.0 102620
06:00−24w11880 0.0 102620
09:00−21w118518 0.0 102670
12:00−14w2479100 0.0 1026258
15:00−12w2481100 0.0 1026336
18:00−14wsw239190 0.0 102536
21:00−18wsw229355 0.0 102520
11 march, thu
thu1100:00−20wsw12910 0.0 102520
03:00−21sw12870 0.0 102520
06:00−22ssw11830 0.0 102420
09:00−17s12790 0.0 102277
12:00−10sse36720 0.0 1019383
15:00−7sse49670 0.0 1016765
18:00−10sse310820 0.0 1012480
21:00−11sse4139132 0.0 1008523